[[{"header":{"parameterUnit":"m.s-1","parameterCategory":1,"la1":30.2992,"la2":30.254,"lo1":-89.0895,"lo2":-89.0443,"dy":0.0025,"dx":0.0025,"nx":19,"ny":19,"refTime":"2026-05-09T03:00:00:Z","depth":0,"parameterNumber":2,"parameterNumberName":"U-component_of_WINDS"},"data":[0,0,0,-3.3615,-3.3616,-3.364,-3.364,-3.3682,-3.3683,0,0,0,0,0,0,0,0,0,0,0,-3.3616,-3.3616,-3.3615,-3.3616,-3.364,-3.364,-3.3682,-3.3683,0,0,0,0,0,0,0,0,0,0,0,-3.3615,-3.3616,-3.3617,-3.3616,-3.364,-3.364,-3.3682,-3.366,0,0,0,0,0,0,0,0,0,0,-3.3634,-3.3642,-3.3616,-3.3617,-3.3616,-3.364,-3.364,-3.3658,-3.3661,-3.3677,0,-3.3693,0,-3.3689,-3.3686,-3.3687,0,0,0,-3.361,-3.364,-3.364,-3.3617,-3.3617,-3.364,-3.3628,-3.366,-3.3663,-3.368,-3.3693,-3.3694,-3.3689,-3.3687,-3.3687,-3.3797,-3.3797,0,0,-3.3609,-3.3624,-3.3638,-3.3642,-3.364,-3.3627,-3.3628,-3.3661,-3.3676,-3.3693,-3.3695,-3.369,-3.3687,-3.3687,-3.3796,-3.3797,0,0,0,-3.3609,-3.3623,-3.3622,-3.3641,-3.3644,-3.3628,-3.3629,-3.3675,-3.3673,-3.3696,-3.3691,-3.3687,-3.3688,-3.3795,-3.3796,-3.3848,0,0,0,-3.3608,-3.3623,-3.3622,-3.3631,-3.3644,-3.366,-3.3642,-3.3671,-3.3674,-3.369,-3.3687,-3.3689,-3.3794,-3.3796,-3.3845,-3.387,0,0,0,-3.3612,-3.3623,-3.363,-3.3632,-3.3643,-3.3659,-3.3659,-3.3671,-3.3672,-3.3687,-3.3689,-3.3794,-3.3795,-3.3842,-3.3865,-3.3902,0,0,0,-3.3619,-3.3676,-3.3631,-3.3692,-3.3643,-3.3692,-3.3659,-3.3695,-3.3714,-3.3688,-3.3794,-3.3796,-3.3841,-3.3862,-3.3899,-3.3934,-3.3951,0,0,-3.3698,-3.3686,-3.372,-3.3681,-3.3742,-3.3687,-3.3756,-3.3759,-3.3747,-3.3781,-3.3783,-3.3846,-3.3864,-3.3901,-3.4043,-3.4056,0,0,0,-3.375,-3.3775,-3.3788,-3.3808,-3.3813,-3.3819,-3.3811,-3.3812,-3.384,-3.3768,-3.387,-3.3881,-3.3902,-3.3917,-3.3929,-3.3945,-3.3805,-3.3805,-3.3805,-3.3881,-3.3864,-3.392,-3.3906,-3.3925,-3.3917,-3.3931,-3.3931,-3.3907,-3.3932,-3.3941,-3.4029,-3.4049,-3.4057,-3.4074,-3.396,-3.3961,-3.3961,-3.3961,-3.3993,-3.4025,-3.3994,-3.4037,-3.4018,-3.4054,-3.4049,-3.4031,-3.4061,-3.4021,-3.4039,-3.3994,-3.4072,-3.4086,-3.3965,-3.3964,-3.3964,-3.3963,-3.3963,-3.4075,-3.4087,-3.4089,-3.4116,-3.4139,-3.4123,-3.4154,-3.4136,-3.412,-3.4137,-3.4144,-3.4143,-3.4138,-3.4142,-3.4143,-3.4143,-3.4143,-3.4144,-3.4144,-3.4157,-3.4158,-3.4186,-3.4198,-3.4208,-3.422,-3.4214,-3.4224,-3.423,-3.4214,-3.4214,-3.4187,-3.4085,-3.4058,-3.4148,-3.4147,-3.4147,-3.4146,-3.4146,-3.4272,-3.4244,-3.4287,-3.4298,-3.431,-3.4334,-3.4313,-3.4334,-3.434,-3.4356,-3.4326,-3.4254,-3.4239,-3.423,-3.4207,-3.4331,-3.4331,-3.4331,-3.4331,-3.4338,-3.4331,-3.4371,-3.439,-3.4406,-3.4392,-3.4441,-3.4437,-3.4429,-3.4431,-3.4412,-3.4382,-3.4373,-3.4363,-3.4351,-3.4329,-3.4481,-3.4482,-3.4482,-3.4407,-3.44,-3.4445,-3.4438,-3.4447,-3.4455,-3.45,-3.4522,-3.4508,-3.4487,-3.4433,-3.4426,-3.4377,-3.4362,-3.4337,-3.4319,-3.4279,0,0]},{"header":{"parameterUnit":"m.s-1","parameterCategory":1,"la1":30.2992,"la2":30.254,"lo1":-89.0895,"lo2":-89.0443,"dy":0.0025,"dx":0.0025,"nx":19,"ny":19,"refTime":"2026-05-09T03:00:00:Z","depth":0,"parameterNumber":3,"parameterNumberName":"V-component_of_WINDS"},"data":[0,0,0,-1.7198,-1.7199,-1.7272,-1.7273,-1.7345,-1.7345,0,0,0,0,0,0,0,0,0,0,0,-1.7166,-1.7166,-1.7197,-1.7199,-1.7272,-1.7273,-1.7345,-1.7345,0,0,0,0,0,0,0,0,0,0,0,-1.7166,-1.7166,-1.7166,-1.7199,-1.7272,-1.7273,-1.7345,-1.7296,0,0,0,0,0,0,0,0,0,0,-1.7228,-1.719,-1.7166,-1.7166,-1.72,-1.7272,-1.7273,-1.7294,-1.7299,-1.7303,0,-1.7307,0,-1.7328,-1.7349,-1.7349,0,0,0,-1.7205,-1.7186,-1.7215,-1.7166,-1.72,-1.7272,-1.7241,-1.7297,-1.7303,-1.731,-1.7308,-1.7312,-1.7329,-1.7349,-1.735,-1.7359,-1.7359,0,0,-1.7201,-1.7172,-1.7211,-1.7218,-1.7209,-1.7239,-1.7243,-1.7301,-1.7296,-1.7309,-1.7314,-1.733,-1.735,-1.735,-1.7359,-1.7359,0,0,0,-1.7185,-1.7169,-1.7198,-1.7215,-1.723,-1.7241,-1.7246,-1.7293,-1.7305,-1.7315,-1.7331,-1.735,-1.7351,-1.7359,-1.7359,-1.7317,0,0,0,-1.7183,-1.716,-1.7196,-1.7178,-1.7228,-1.7263,-1.7237,-1.7301,-1.7309,-1.7331,-1.735,-1.7351,-1.736,-1.7359,-1.7319,-1.7301,0,0,0,-1.7164,-1.7158,-1.7166,-1.7177,-1.7208,-1.7263,-1.7278,-1.7304,-1.7318,-1.7349,-1.7352,-1.736,-1.7359,-1.7321,-1.7303,-1.7293,0,0,0,-1.7134,-1.7126,-1.7164,-1.7162,-1.7207,-1.7238,-1.7278,-1.7303,-1.7324,-1.735,-1.736,-1.7359,-1.7321,-1.7305,-1.7295,-1.7277,-1.7268,0,0,-1.7107,-1.7122,-1.7123,-1.7159,-1.7176,-1.7229,-1.724,-1.7286,-1.7314,-1.7341,-1.7342,-1.7318,-1.7304,-1.7293,-1.7233,-1.7225,0,0,0,-1.7104,-1.7103,-1.7115,-1.7136,-1.7173,-1.7203,-1.7251,-1.7268,-1.7294,-1.7323,-1.7315,-1.7307,-1.7302,-1.7294,-1.7288,-1.7284,-1.7356,-1.7356,-1.7356,-1.702,-1.706,-1.7063,-1.7112,-1.7132,-1.7183,-1.7202,-1.7233,-1.7265,-1.7263,-1.7269,-1.7229,-1.7219,-1.7215,-1.721,-1.7267,-1.7266,-1.7266,-1.7266,-1.6982,-1.6986,-1.7033,-1.7052,-1.7094,-1.7109,-1.7159,-1.7181,-1.72,-1.7226,-1.7224,-1.7246,-1.7205,-1.7203,-1.7263,-1.7264,-1.7264,-1.7265,-1.7265,-1.6928,-1.6937,-1.6961,-1.6997,-1.7019,-1.7069,-1.7085,-1.7123,-1.7157,-1.7155,-1.7165,-1.7166,-1.7168,-1.7158,-1.7158,-1.7158,-1.7158,-1.7158,-1.7158,-1.6861,-1.689,-1.6901,-1.6942,-1.6961,-1.699,-1.7044,-1.7062,-1.7091,-1.7117,-1.7117,-1.7147,-1.7196,-1.7205,-1.7156,-1.7156,-1.7156,-1.7156,-1.7157,-1.6799,-1.682,-1.6837,-1.6856,-1.6908,-1.6926,-1.6976,-1.7011,-1.7032,-1.7038,-1.7071,-1.7103,-1.7118,-1.7124,-1.7131,-1.7065,-1.7065,-1.7065,-1.7065,-1.6751,-1.6765,-1.6791,-1.6819,-1.6851,-1.6899,-1.6913,-1.6955,-1.7,-1.7015,-1.7031,-1.7046,-1.705,-1.7063,-1.707,-1.7077,-1.6999,-1.6999,-1.6999,-1.6714,-1.6733,-1.6739,-1.6788,-1.6832,-1.6867,-1.6882,-1.691,-1.6966,-1.6997,-1.7027,-1.7029,-1.7054,-1.7061,-1.7086,-1.7096,-1.7111,0,0]}]]